Weather History for KVCB - December, 2011

Change the Weather History Date:

Saturday, December 17, 2011

  Actual Average Record
Temperature  
Mean Temperature 42 °F -  
Max Temperature 55 °F 56 °F - (-1)
Min Temperature 30 °F 36 °F - (-1)
Degree Days  
Heating Degree Days 22    
Moisture  
Dew Point 34 °F    
Average Humidity 91    
Maximum Humidity 100    
Minimum Humidity 59    
Precipitation  
Precipitation 0.00 in - - ()
Sea Level Pressure  
Sea Level Pressure 30.18 in    
Wind  
Wind Speed 1 mph (SSE)    
Max Wind Speed 5 mph    
Max Gust Speed -    
Visibility 3 miles    
Events      
Averages and records for this station are not official NWS values.
T = Trace of Precipitation, MM = Missing Value Source: NWS Daily Summary

Daily Weather History Graph

Daily Weather History Graph

Search for Another Location

Airport or City:

Trip Planner

Search our weather history database for the weather conditions in past years. The results will help you decide how hot, cold, wet, or windy it might be!

Date:

Astronomy

Dec. 17, 2011 Rise Set
Actual Time 7:18 AM PST 4:48 PM PST
Civil Twilight 6:49 AM PST 5:18 PM PST
Nautical Twilight 6:16 AM PST 5:51 PM PST
Astronomical Twilight 5:43 AM PST 6:24 PM PST
Moon No Moon Rise 11:42 AM PST (12/17)
Length of Visible Light 10h 29m
Length of Day
9h 29m
Waning Gibbous, 52% of the Moon is Illuminated
Dec 17
Waning Gibbous
Dec 17
Last Quarter
Dec 24
New
Dec 31
First Quarter
Jan 8
Full

Hourly Weather History & Observations

Time (PST) Temp. Windchill Dew Point Humidity Pressure Visibility Wind Dir Wind Speed Gust Speed Precip Events Conditions
12:53 AM 34.0 °F - 33.1 °F 96% 30.20 in 4.0 mi Calm Calm - N/A   Clear
1:53 AM 35.1 °F 31.0 °F 34.0 °F 96% 30.20 in 3.0 mi NNW 4.6 mph - N/A   Clear
2:53 AM 35.1 °F - 34.0 °F 96% 30.20 in 3.0 mi Calm Calm - N/A   Clear
3:40 AM 35.6 °F - 33.8 °F 93% 30.20 in 2.5 mi Calm Calm - N/A   Clear
3:50 AM 33.8 °F - 32.0 °F 93% 30.20 in 3.0 mi Calm Calm - N/A   Clear
3:53 AM 32.0 °F - 32.0 °F 100% 30.20 in 3.0 mi Calm Calm - N/A   Clear
4:30 AM 33.8 °F - 30.2 °F 87% 30.20 in 2.5 mi Calm Calm - N/A   Clear
4:39 AM 33.8 °F - 32.0 °F 93% 30.21 in 4.0 mi Calm Calm - N/A   Clear
4:47 AM 30.2 °F - 30.2 °F 100% 30.20 in 1.8 mi Calm Calm - N/A   Clear
4:53 AM 30.9 °F - 30.9 °F 100% 30.21 in 1.2 mi Calm Calm - N/A   Clear
5:08 AM 30.2 °F - 30.2 °F 100% 30.21 in 2.0 mi Calm Calm - N/A   Clear
5:53 AM 32.0 °F - 30.9 °F 96% 30.21 in 2.0 mi Calm Calm - N/A   Clear
6:10 AM 30.2 °F - 30.2 °F 100% 30.21 in 3.0 mi Calm Calm - N/A   Clear
6:19 AM 32.0 °F - 30.2 °F 93% 30.20 in 2.5 mi Calm Calm - N/A   Clear
6:31 AM 30.2 °F - 28.4 °F 93% 30.20 in 1.5 mi Calm Calm - N/A   Partly Cloudy
6:35 AM 30.2 °F - 30.2 °F 100% 30.21 in 0.8 mi Calm Calm - N/A   Mist
6:43 AM 30.2 °F - 30.2 °F 100% 30.21 in 1.2 mi Calm Calm - N/A   Partly Cloudy
6:53 AM 30.0 °F - 30.0 °F 100% 30.21 in 1.0 mi Calm Calm - N/A   Mist
7:00 AM 30.2 °F - 30.2 °F 100% 30.21 in 1.2 mi Calm Calm - N/A   Partly Cloudy
7:53 AM 32.0 °F - 30.9 °F 96% 30.22 in 1.0 mi Calm Calm - N/A   Clear
8:53 AM 42.1 °F - 39.9 °F 92% 30.22 in 2.0 mi Calm Calm - N/A   Clear
9:12 AM 44.6 °F 43.1 °F 39.2 °F 81% 30.22 in 3.0 mi Variable 3.5 mph - N/A   Clear
9:53 AM 46.0 °F 43.9 °F 41.0 °F 83% 30.23 in 3.0 mi South 4.6 mph - N/A   Haze
10:53 AM 48.0 °F - 39.9 °F 74% 30.22 in 4.0 mi SE 3.5 mph - N/A   Haze
11:53 AM 48.0 °F - 41.0 °F 77% 30.19 in 4.0 mi SSE 3.5 mph - N/A   Haze
12:53 PM 50.0 °F - 42.1 °F 74% 30.15 in 5.0 mi SE 4.6 mph - N/A   Haze
1:53 PM 52.0 °F - 43.0 °F 71% 30.13 in 5.0 mi SSE 4.6 mph - N/A   Haze
2:53 PM 55.0 °F - 41.0 °F 59% 30.12 in 6.0 mi Calm Calm - N/A   Haze
4:53 PM 51.1 °F - 42.1 °F 71% 30.10 in 5.0 mi South 3.5 mph - N/A   Haze
5:53 PM 42.1 °F - 39.0 °F 89% 30.11 in 5.0 mi Calm Calm - N/A   Clear
6:53 PM 39.9 °F - 37.9 °F 93% 30.10 in 5.0 mi Calm Calm - N/A   Clear
7:53 PM 36.0 °F - 35.1 °F 97% 30.10 in 5.0 mi Calm Calm - N/A   Clear
8:53 PM 37.0 °F - 36.0 °F 96% 30.12 in 3.0 mi Calm Calm - N/A   Clear
9:53 PM 35.1 °F - 33.1 °F 92% 30.13 in 3.0 mi Calm Calm - N/A   Clear
10:23 PM 35.6 °F - 33.8 °F 93% 30.14 in 2.5 mi Calm Calm - N/A   Clear
10:53 PM 34.0 °F 31.0 °F 34.0 °F 100% 30.15 in 2.5 mi NNW 3.5 mph - N/A   Clear
11:53 PM 34.0 °F 29.8 °F 33.1 °F 96% 30.15 in 2.0 mi NW 4.6 mph - N/A   Clear